Find Starlink 33987

NORAD ID: 63873 Int'l Des: 2025-094 Owner: SPXS Country: US Constellation: starlink operational
LEOCIRCULAR

Current View

Loading 3D Globe...

About Starlink 33987

Description loading...

Upcoming Passes

Passes for default location (London). Set your location on the main map for personalized predictions.

Altitude History

Loading altitude history...

Two-Line Element Set

1 63873U 25094K 26151.06585708 .00003301 00000-0 28422-3 0 9999
2 63873 70.0021 26.7094 0002844 266.3835 93.6999 14.98338207 59541
Epoch: May 31, 2026 • Age: 9 hours

Current Status

Altitude 574.1 km
Velocity 7.57 km/s
Sub-Earth Point 2.16°N, 160.34°E
Launch Date May 10, 2025
Age 1 years
Type internet

Technical Details

Classification Payload
Mass 575.00 kg
Dry Mass 530.00 kg
Total Mass 575.00 kg
Length 0.30 m
Diameter 4.10 m
Span 29.00 m
Shape Box + pan
Manufacturer SPXS
Bus Type Starlink V2MO
Phase Status In Orbit
Owner/State SPXS/US

Most Searched